Total_Precipitation_Accumulation
1.96 2.12 2.55 2.45 2.29 2.24 1.99 1.92 1.99 2.06 2.27 2.26 2.22 2.21 2.23 2.33 2.40 2.58 2.67 2.85 3.06 3.29 3.31 3.22 3.21 3.16 2.99 2.90 2.94 2.79 2.62 2.66 2.66 2.56 2.56 2.50 2.59 2.70 2.99 3.25 3.36 2.60 2.22
1.44 1.68 2.29 2.30 2.18 2.22 2.02 1.93 1.87 1.88 2.00 2.09 2.02 2.03 2.03 2.05 2.12 2.41 2.71 2.93 3.20 3.51 3.32 3.11 3.12 3.07 3.01 2.95 2.87 2.77 2.71 2.87 2.95 3.12 3.23 2.93 2.99 2.99 3.05 2.97 3.19 2.68 2.40
1.10 1.31 1.71 2.19 2.14 2.19 2.10 1.91 1.88 1.85 1.82 1.83 1.89 1.99 2.05 2.13 2.16 2.27 2.40 2.59 3.05 3.29 3.14 3.07 3.03 2.95 2.85 2.99 2.91 2.75 2.83 3.02 3.24 3.68 3.89 2.95 2.47 2.89 2.93 2.81 2.77 2.58 2.31
0.97 1.06 1.23 1.84 2.20 2.35 2.14 1.97 1.90 1.85 1.85 1.78 1.94 1.93 1.96 2.16 2.32 2.48 2.52 2.58 2.78 2.93 2.89 2.95 2.90 2.96 2.86 2.81 2.80 2.84 2.92 2.90 3.23 3.64 3.51 2.43 1.84 2.33 2.59 2.47 2.50 2.48 2.47
0.94 1.02 1.31 1.94 2.17 2.14 2.08 1.95 1.78 1.82 1.91 1.95 1.91 1.82 1.89 2.07 2.34 2.47 2.66 2.79 2.68 2.82 2.90 2.93 2.79 2.92 2.78 2.68 2.79 2.83 2.88 2.90 3.14 3.01 2.41 2.45 2.48 2.39 2.23 2.33 2.73 2.91 2.78
1.03 1.12 1.48 1.95 2.03 2.07 2.03 1.95 1.83 1.89 2.01 2.00 1.94 1.92 2.05 2.09 2.17 2.17 2.30 2.53 2.61 2.72 2.87 3.00 2.91 2.87 2.71 2.71 2.81 2.67 2.63 2.72 2.60 1.93 1.80 2.19 2.35 2.37 2.27 2.51 2.83 3.07 3.01
1.07 1.28 1.62 1.98 2.05 2.14 1.93 1.86 1.88 1.88 1.92 1.94 1.94 1.85 1.95 2.03 2.10 2.12 2.17 2.37 2.62 2.88 2.94 2.93 2.95 2.84 2.85 3.05 2.91 2.68 2.60 2.54 2.06 1.63 1.75 2.11 2.20 2.22 2.54 2.74 2.77 2.77 2.74
1.39 1.54 1.91 2.23 2.33 2.35 2.08 1.97 1.95 1.91 1.86 1.88 1.89 1.88 1.79 1.88 1.98 2.01 2.09 2.26 2.60 3.06 2.99 2.84 2.82 2.69 2.76 2.88 2.70 2.45 2.40 2.06 1.54 1.56 1.73 1.94 1.88 2.04 2.50 2.79 2.93 3.02 2.84
1.69 1.81 2.01 2.31 2.38 2.40 2.23 2.18 2.03 1.92 1.92 1.99 2.00 1.86 1.79 1.83 1.81 1.74 1.86 2.16 2.44 2.92 2.81 2.79 2.72 2.62 2.58 2.72 2.60 2.40 2.36 2.13 1.67 1.78 1.72 1.82 1.79 2.04 2.31 2.52 2.66 2.89 2.87
2.07 2.01 1.90 1.96 2.12 2.02 1.86 2.02 1.97 1.93 2.05 2.15 2.17 2.02 2.07 2.06 1.84 1.85 1.94 2.18 2.41 2.62 2.52 2.51 2.53 2.54 2.54 2.70 2.60 2.53 2.48 2.17 1.75 1.84 2.01 1.77 1.87 2.21 2.36 2.34 2.57 2.87 2.71
2.44 2.06 1.81 1.78 1.92 1.91 1.71 1.74 2.16 2.27 2.30 2.41 2.55 2.54 2.72 2.76 2.30 2.33 2.10 2.33 2.59 2.55 2.49 2.64 2.69 2.77 2.93 2.90 2.82 2.76 2.52 2.08 2.08 2.18 2.41 1.96 1.97 2.40 2.63 2.63 2.59 2.50 2.46
2.49 2.41 2.15 1.94 1.85 1.90 1.73 1.92 2.64 2.60 2.62 2.88 3.15 3.01 3.15 2.95 2.67 2.09 2.24 2.82 2.96 2.96 3.05 3.38 3.57 3.28 3.13 3.06 3.23 3.45 2.67 2.30 2.27 2.21 2.28 2.09 2.25 2.74 3.07 3.06 2.89 2.45 2.32
2.46 2.32 2.41 2.27 2.10 2.07 2.26 2.20 2.49 2.83 2.99 3.10 3.06 3.01 3.11 2.62 2.28 2.20 2.76 3.31 3.20 3.13 3.31 3.63 3.89 3.16 3.24 3.87 3.91 3.61 3.13 2.85 2.67 2.56 2.58 2.53 2.70 3.21 3.58 3.58 3.32 2.77 2.50
2.71 2.58 2.86 2.78 2.71 2.72 2.56 2.56 2.43 2.47 2.53 2.56 2.69 2.57 2.67 2.79 2.73 2.85 3.21 3.30 3.31 3.44 3.78 3.61 3.80 3.69 3.87 3.90 3.84 3.83 3.68 3.43 3.18 3.17 3.45 3.22 3.20 3.40 3.90 3.95 3.51 3.20 3.00
3.08 3.16 3.30 3.32 3.45 3.29 3.10 2.97 2.47 2.49 2.37 2.27 2.34 2.32 2.49 2.85 3.03 3.34 3.24 3.28 2.99 3.15 3.46 3.77 3.77 4.02 4.34 4.23 3.74 3.51 3.58 3.48 3.20 3.00 3.17 3.41 3.48 3.46 3.85 4.15 3.80 3.50 3.40
3.60 3.85 3.83 3.83 3.87 3.72 3.37 3.16 2.87 2.51 2.51 2.27 2.27 2.33 2.82 3.12 3.28 3.57 3.44 3.32 2.98 3.00 3.34 3.65 3.67 4.04 4.20 4.27 3.74 3.42 3.40 3.36 3.06 2.77 2.83 3.33 3.40 3.31 3.52 3.95 4.10 3.98 3.78
4.25 4.45 4.66 4.55 4.24 4.32 3.99 3.26 2.75 2.47 2.29 2.41 2.57 2.62 2.95 3.13 3.50 3.82 3.75 3.31 3.04 3.14 3.35 3.31 3.44 3.97 3.92 3.85 3.73 3.60 3.50 3.32 2.98 2.89 2.83 3.03 2.91 3.04 3.33 3.52 3.85 4.12 4.17
4.77 5.19 5.41 5.01 4.90 4.94 4.65 4.08 3.49 3.13 2.97 3.01 3.02 2.87 2.69 2.89 3.10 3.52 3.31 2.88 2.93 3.11 3.32 3.36 3.32 3.72 3.90 3.92 3.97 3.77 3.57 3.35 2.94 2.82 2.81 2.81 2.80 2.53 2.84 3.21 3.62 3.94 4.36
5.03 5.77 6.19 6.42 5.92 5.55 5.00 4.59 4.05 3.74 3.56 3.30 3.02 2.78 2.50 2.27 2.21 2.64 2.64 2.57 2.59 2.86 2.96 2.63 2.88 3.22 3.45 3.64 3.36 3.28 2.93 2.73 2.64 2.44 2.40 2.32 2.53 2.65 2.81 2.86 3.24 3.57 4.23
5.14 5.87 6.30 6.57 6.06 5.37 5.07 5.05 4.71 4.12 3.65 3.26 2.94 2.76 2.37 2.26 2.05 2.33 2.38 2.23 2.19 2.43 2.58 2.72 3.04 3.11 2.98 3.06 2.65 2.67 2.65 2.40 2.37 2.33 2.15 2.14 2.24 2.22 2.51 2.83 3.14 2.95 3.48
5.51 6.19 6.34 6.11 5.45 4.97 4.56 4.33 4.06 3.81 3.52 3.01 2.61 2.39 2.29 2.21 2.22 2.53 2.34 2.39 2.22 2.28 2.37 2.43 2.67 2.79 2.56 2.74 3.12 2.94 2.60 2.32 2.25 2.15 2.09 2.17 2.17 2.30 2.52 2.90 3.14 3.21 3.09
5.06 5.42 5.51 5.15 4.43 3.96 3.75 3.74 3.47 3.27 2.94 2.71 2.46 2.48 2.14 2.06 2.15 2.11 2.34 2.18 2.14 2.39 2.35 2.43 2.65 2.61 2.34 2.52 3.03 3.26 3.01 2.94 2.37 1.74 1.95 2.09 2.15 2.42 2.47 2.46 2.70 3.23 3.25
4.54 4.32 4.01 3.84 3.49 3.41 3.41 3.26 3.06 3.00 2.72 2.54 2.34 2.29 1.97 1.76 1.80 1.92 1.99 1.98 2.14 2.08 2.28 2.43 2.51 2.72 2.67 2.42 2.44 2.94 2.96 2.92 2.62 2.04 1.75 1.86 2.17 2.47 2.45 2.48 2.51 2.85 3.14
3.54 3.25 3.07 3.02 2.97 2.93 2.87 2.78 2.51 2.38 2.37 2.23 2.16 2.20 2.09 1.82 1.79 1.84 1.87 2.05 2.12 2.00 2.31 2.02 2.19 2.58 2.75 2.48 2.47 2.39 2.44 2.64 2.72 2.53 2.15 1.86 2.05 2.16 2.26 2.24 2.39 2.72 2.99
2.29 2.45 2.53 2.68 2.82 2.73 2.68 2.69 2.64 2.36 2.32 2.30 2.31 2.43 2.32 2.07 1.88 1.70 1.88 2.15 2.25 2.11 2.15 2.18 2.44 2.42 2.44 2.40 2.36 2.31 2.44 2.52 2.34 2.41 2.41 2.22 2.05 1.72 1.86 2.16 2.39 2.53 2.70
1.62 1.84 2.04 2.17 2.32 2.49 2.53 2.39 2.34 2.31 2.40 2.46 2.43 2.29 2.11 2.00 1.91 1.81 1.96 2.22 2.25 2.30 2.27 2.21 2.23 2.23 2.39 2.49 2.41 2.26 2.35 2.48 2.48 2.59 2.35 2.27 2.28 1.96 2.04 2.31 2.40 2.49 2.49